Weather History for Ohio State University, OH

Change the Weather History Date:

Tuesday, March 19, 2013

  Actual Average Record
Temperature  
Mean Temperature 32 °F -  
Max Temperature 39 °F 47 °F 77 °F (2012)
Min Temperature 28 °F 30 °F 23 °F (2001)
Degree Days  
Heating Degree Days 32    
Moisture  
Dew Point 23 °F    
Average Humidity 68    
Maximum Humidity 93    
Minimum Humidity 46    
Precipitation  
Precipitation 0.00 in - - ()
Sea Level Pressure  
Sea Level Pressure 29.89 in    
Wind  
Wind Speed 17 mph (West)    
Max Wind Speed 30 mph    
Max Gust Speed 40 mph    
Visibility 10 miles    
Events Rain , Snow    
Averages and records for this station are not official NWS values.
T = Trace of Precipitation, MM = Missing Value Source: NWS Daily Summary

Daily Weather History Graph

Daily Weather History Graph

Search for Another Location

Airport:

Trip Planner

Search our weather history database for the weather conditions in past years. The results will help you decide how hot, cold, wet, or windy it might be!

Date:

Astronomy

Mar. 19, 2013 Rise Set
Actual Time 7:36 AM EDT 7:43 PM EDT
Civil Twilight 7:09 AM EDT 8:10 PM EDT
Nautical Twilight 6:38 AM EDT 8:42 PM EDT
Astronomical Twilight 6:06 AM EDT 9:14 PM EDT
Moon 12:26 PM EDT (3/19) 2:29 AM EDT (3/19)
Length of Visible Light 13h 00m
Length of Day
12h 06m
Waxing Crescent, 49% of the Moon is Illuminated
Mar 19
Waxing Crescent
Mar 19
First Quarter
Mar 27
Full
Apr 3
Last Quarter
Apr 10
New

Hourly Weather History & Observations

Time (EDT) Temp. Windchill Dew Point Humidity Pressure Visibility Wind Dir Wind Speed Gust Speed Precip Events Conditions
12:11 AM 37.4 °F 28.2 °F 33.8 °F 87% 29.77 in 10.0 mi West 16.1 mph 27.6 mph N/A   Overcast
12:53 AM 37.9 °F 30.0 °F 33.1 °F 83% 29.79 in 10.0 mi West 12.7 mph - N/A   Overcast
1:32 AM 37.4 °F 26.9 °F 33.8 °F 87% 29.78 in 7.0 mi West 20.7 mph 27.6 mph 0.00 in Rain Light Rain
1:53 AM 36.0 °F 28.0 °F 34.0 °F 93% 29.80 in 10.0 mi WSW 11.5 mph 19.6 mph 0.00 in   Overcast
2:53 AM 37.9 °F 30.0 °F 30.9 °F 76% 29.81 in 10.0 mi WSW 12.7 mph 20.7 mph N/A   Overcast
3:53 AM 37.9 °F 30.0 °F 32.0 °F 79% 29.80 in 10.0 mi SW 12.7 mph 20.7 mph N/A   Overcast
4:19 AM 37.4 °F 29.3 °F 32.0 °F 81% 29.79 in 10.0 mi SW 12.7 mph - 0.00 in Rain Light Rain
4:53 AM 35.1 °F 23.3 °F 27.0 °F 72% 29.82 in 10.0 mi West 23.0 mph 31.1 mph 0.00 in Snow Light Snow
5:03 AM 33.8 °F 22.2 °F 26.6 °F 75% 29.81 in 9.0 mi West 20.7 mph 28.8 mph 0.00 in   Mostly Cloudy
5:53 AM 32.0 °F 21.2 °F 25.0 °F 75% 29.84 in 10.0 mi West 16.1 mph 29.9 mph 0.00 in   Partly Cloudy
6:53 AM 30.0 °F 20.5 °F 24.1 °F 79% 29.86 in 10.0 mi West 11.5 mph 18.4 mph N/A   Clear
7:49 AM 30.2 °F 19.3 °F 24.8 °F 80% 29.86 in 10.0 mi West 15.0 mph 26.5 mph N/A   Mostly Cloudy
7:53 AM 30.0 °F 18.7 °F 24.1 °F 79% 29.89 in 10.0 mi West 16.1 mph 26.5 mph N/A   Overcast
8:19 AM 28.4 °F 16.6 °F 21.2 °F 74% 29.86 in 10.0 mi West 16.1 mph 21.9 mph N/A   Mostly Cloudy
8:42 AM 28.4 °F 15.4 °F 21.2 °F 74% 29.86 in 10.0 mi WSW 19.6 mph 28.8 mph N/A   Mostly Cloudy
8:51 AM 28.4 °F 15.4 °F 19.4 °F 69% 29.86 in 10.0 mi West 19.6 mph 28.8 mph 0.00 in   Mostly Cloudy
8:53 AM 28.9 °F 16.1 °F 19.9 °F 69% 29.88 in 10.0 mi West 19.6 mph 28.8 mph 0.00 in   Mostly Cloudy
9:04 AM 28.4 °F 14.7 °F 21.2 °F 74% 29.87 in 10.0 mi West 21.9 mph 28.8 mph N/A   Mostly Cloudy
9:17 AM 28.4 °F 15.1 °F 19.4 °F 69% 29.87 in 9.0 mi West 20.7 mph 28.8 mph 0.00 in   Scattered Clouds
9:35 AM 28.4 °F 16.6 °F 19.4 °F 69% 29.87 in 10.0 mi West 16.1 mph 27.6 mph 0.00 in   Mostly Cloudy
9:53 AM 28.9 °F 16.9 °F 19.9 °F 69% 29.91 in 10.0 mi West 17.3 mph 28.8 mph 0.00 in   Overcast
10:09 AM 28.4 °F 16.6 °F 19.4 °F 69% 29.89 in 9.0 mi West 16.1 mph 29.9 mph 0.00 in Snow Light Snow
10:21 AM 28.4 °F 16.2 °F 19.4 °F 69% 29.89 in 9.0 mi West 17.3 mph 27.6 mph 0.00 in   Overcast
10:53 AM 28.9 °F 16.1 °F 19.0 °F 67% 29.91 in 9.0 mi West 19.6 mph 28.8 mph 0.00 in   Overcast
11:05 AM 30.2 °F 18.1 °F 19.4 °F 64% 29.89 in 10.0 mi West 18.4 mph 27.6 mph N/A   Overcast
11:53 AM 30.9 °F 17.2 °F 19.0 °F 61% 29.93 in 9.0 mi WSW 25.3 mph 34.5 mph 0.00 in   Overcast
12:53 PM 32.0 °F 19.2 °F 19.0 °F 59% 29.94 in 9.0 mi West 23.0 mph 34.5 mph N/A   Overcast
1:53 PM 33.1 °F 19.8 °F 19.0 °F 56% 29.94 in 9.0 mi West 26.5 mph 34.5 mph N/A   Overcast
2:53 PM 35.1 °F 23.0 °F 19.0 °F 52% 29.95 in 9.0 mi West 24.2 mph 35.7 mph N/A   Overcast
3:53 PM 36.0 °F 23.5 °F 19.0 °F 50% 29.96 in 9.0 mi WNW 27.6 mph 39.1 mph N/A   Overcast
4:53 PM 36.0 °F 23.0 °F 19.0 °F 50% 29.96 in 9.0 mi West 29.9 mph 38.0 mph N/A   Mostly Cloudy
5:53 PM 37.0 °F 24.9 °F 19.0 °F 48% 29.98 in 10.0 mi West 27.6 mph 40.3 mph N/A   Mostly Cloudy
6:53 PM 36.0 °F 26.7 °F 18.0 °F 48% 29.99 in 10.0 mi West 15.0 mph 28.8 mph N/A   Clear
7:53 PM 35.1 °F 24.8 °F 16.0 °F 46% 30.01 in 10.0 mi West 17.3 mph 25.3 mph 0.00 in   Clear
8:53 PM 34.0 °F 24.2 °F 19.0 °F 54% 30.03 in 10.0 mi West 15.0 mph 23.0 mph N/A   Clear
9:53 PM 33.1 °F 23.0 °F 18.0 °F 54% 30.04 in 10.0 mi West 15.0 mph - N/A   Clear
10:53 PM 33.1 °F 23.4 °F 18.0 °F 54% 30.04 in 10.0 mi West 13.8 mph 20.7 mph N/A   Clear
11:53 PM 33.1 °F 22.6 °F 17.1 °F 52% 30.04 in 10.0 mi West 16.1 mph 29.9 mph N/A   Clear